Location: Hains Lake
(37.8540°N, 99.8578°W)
Time: 04:03:45
(UTC+00:00)

Transit 2A - Pass Details

Date: 21 April 2021
Orbit: 602 x 957 km, 66.7° (Epoch: 13 May)

Event Time Altitude Azimuth Distance (km) Brightness Sun altitude
Rises 12:11:05 0° 177° (S) 3,156 9.1 2.1°
Reaches altitude 10° 12:13:53 10° 164° (SSE) 2,174 8.4 2.7°
Maximum altitude 12:17:50 25° 110° (ESE) 1,353 8.3 3.4°
Drops below altitude 10° 12:21:33 10° 56° (NE) 2,037 9.7 4.1°
Sets 12:24:04 0° 43° (NE) 2,912 10.0 4.6°
